Terminal Aerodrome Forecast
Issued by NWS Green Bay, WI

Home | Current Version | Previous Version | Graphics & Text | Print | Product List | Glossary On
Versions: 1 2 3 4 5 6 7 8 9 10 11 12 13 14 15
000
FTUS43 KGRB 200520
TAFGRB
TAF
KGRB 200520Z 2006/2106 02012G18KT P6SM SCT022 OVC035
     FM200900 02009G18KT P6SM SCT035 BKN110
     FM201800 05008G17KT P6SM SCT200
     FM202200 06006KT P6SM SCT250=

USA.gov is the U.S. government's official web portal to all federal, state and local government web resources and services.